Location: Bogis-Bossey
(46.3500°N, 6.1667°E)
Time: 19:12:46
(UTC+00:00)

Meteor 1-27 Rocket - Pass Details

Date: 17 August 2022
Orbit: 831 x 908 km, 81.3° (Epoch: 01 October)

Event Time Altitude Azimuth Distance (km) Brightness Sun altitude
Rises 19:52:17 0° 351° (N) 3,420 7.6 -11.7°
Reaches altitude 10° 19:54:43 10° 354° (N) 2,490 6.7 -12.0°
Maximum altitude 20:00:21 68° 77° (ENE) 930 3.8 -12.8°
Enters shadow 20:05:28 13° 159° (SSE) 2,298 5.5 -13.6°
